{"data":{"norad_id":52340,"intl_designator":"2022-045K","name":"STARLINK-3818","alt_names":[],"object_type":"PAYLOAD","status":"ACTIVE","operator":null,"country":"US","launch_date":"2022-04-29","launch_site_code":"AFETR","launch_vehicle":null,"mission":null,"orbit_class":"UNKNOWN","rcs_meters":null,"size_class":null,"mass_kg":null,"dimensions":null,"purposes":["comms"],"wikipedia_slug":null,"has_3d_model":false,"image_url":null,"decayed_at":null,"tle_current":{"epoch":"2026-05-24T21:33:18.324000Z","epoch_age_seconds":83819,"freshness":"FRESH","line1":"1 52340U 22045K   26144.89812875  .00000034  00000+0  20252-4 0  9993","line2":"2 52340  53.2128 217.0065 0001092  98.5255 261.5861 15.08835641227274","mean_motion":15.08835641,"eccentricity":0.0001092,"inclination_deg":53.2128,"raan_deg":217.0065,"arg_perigee_deg":98.5255,"mean_anomaly_deg":261.5861,"bstar":2.0252e-5,"rev_number":22727,"period_min":95.437830395206,"perigee_km":539.00127872191,"apogee_km":540.51214670876,"semimajor_km":6917.8937127153,"source":"CELESTRAK","updated_at":"2026-05-25T13:38:17.114083Z"}}}